[[{"header":{"parameterUnit":"m.s-1","parameterCategory":1,"la1":30.2991,"la2":30.254,"lo1":-89.0895,"lo2":-89.0444,"dy":0.0017,"dx":0.0017,"nx":28,"ny":28,"refTime":"2024-08-10T21:00:00:Z","depth":0,"parameterNumber":2,"parameterNumberName":"U-component_of_WINDS"},"data":[0,0,0,0,0,0,0,0,0,0,0,0,0,0,0,0,0,0,0,0,0,0,0,0,0,0,0,0,0,0,0,0,0,0,0,0,0,0,0,0,0,0,0,0,0,0,0,0,0,0,0,0,0,0,0,0,0,0,-0.1224,-0.1223,0,-0.1187,-0.1186,-0.1186,-0.118,-0.118,-0.118,-0.1181,-0.114,-0.1139,-0.1137,0,0,0,0,0,0,0,0,0,0,0,0,0,-0.1287,-0.1286,-0.1224,-0.1223,-0.1223,-0.1187,-0.1186,-0.1186,-0.118,-0.118,-0.118,-0.1181,-0.1141,-0.1139,-0.1137,0,0,0,0,0,0,0,0,0,0,0,0,0,-0.1256,-0.1286,-0.1224,-0.1216,-0.1214,-0.1187,-0.1186,-0.1186,-0.1179,-0.118,-0.118,-0.1181,-0.1141,-0.1139,-0.1137,-0.1115,0,0,-0.1131,-0.113,0,0,0,0,0,0,0,0,-0.1258,-0.1254,-0.1217,-0.1216,-0.1215,-0.1188,-0.1194,-0.1162,-0.1179,-0.1193,-0.1181,-0.1181,-0.1156,-0.1152,-0.1144,-0.1113,-0.1111,-0.1131,-0.1129,-0.1129,-0.1128,0,0,0,0,0,0,0,-0.126,-0.1255,-0.1209,-0.1217,-0.1215,-0.1213,-0.1209,-0.1188,-0.1172,-0.1191,-0.1191,-0.1187,-0.1155,-0.1146,-0.1143,-0.1111,-0.1131,-0.1129,-0.1128,-0.1127,-0.106,-0.1059,0,0,0,0,0,0,-0.1264,-0.1257,-0.121,-0.1208,-0.1238,-0.1211,-0.1207,-0.1196,-0.1172,-0.1169,-0.1186,-0.1187,-0.115,-0.1146,-0.1142,-0.1115,-0.1129,-0.1127,-0.1125,-0.106,-0.106,-0.1059,0,0,0,0,0,0,-0.1265,-0.126,-0.1212,-0.1232,-0.1226,-0.121,-0.1198,-0.1195,-0.1187,-0.1168,-0.1165,-0.1181,-0.115,-0.1145,-0.1122,-0.1113,-0.1126,-0.1124,-0.1061,-0.106,-0.1059,-0.106,0,0,0,0,0,0,-0.1267,-0.126,-0.1252,-0.1232,-0.1225,-0.1193,-0.1197,-0.1194,-0.1183,-0.1183,-0.1162,-0.1159,-0.115,-0.1125,-0.112,-0.1111,-0.1122,-0.1062,-0.1061,-0.106,-0.1061,-0.1059,-0.1058,0,0,0,0,0,-0.1269,-0.1253,-0.1252,-0.1246,-0.1214,-0.1192,-0.1188,-0.1179,-0.1183,-0.1174,-0.1162,-0.116,-0.1115,-0.1123,-0.1117,-0.1107,-0.1062,-0.1061,-0.106,-0.1061,-0.106,-0.1058,0,0,0,0,0,0,-0.1271,-0.125,-0.1248,-0.1225,-0.1211,-0.1191,-0.118,-0.1177,-0.1161,-0.1161,-0.115,-0.1145,-0.1123,-0.1112,-0.1121,-0.1084,-0.1089,-0.1086,-0.1092,-0.109,-0.1089,-0.1092,-0.112,0,0,0,0,0,-0.1269,-0.1253,-0.1236,-0.1217,-0.121,-0.1196,-0.1186,-0.1181,-0.1165,-0.1158,-0.1145,-0.1129,-0.1112,-0.11,-0.1083,-0.1059,-0.1055,-0.1049,-0.1048,-0.1047,-0.1045,-0.1032,-0.103,-0.1055,-0.1055,-0.1055,0,0,-0.1264,-0.1251,-0.1241,-0.1217,-0.1205,-0.1189,-0.1191,-0.1174,-0.1162,-0.1155,-0.1134,-0.1123,-0.1105,-0.1082,-0.107,-0.1072,-0.1037,-0.1046,-0.1045,-0.1044,-0.1031,-0.1029,-0.1027,-0.1054,-0.1054,-0.1054,0,0,-0.1247,-0.1235,-0.1219,-0.1207,-0.1189,-0.1181,-0.1177,-0.1158,-0.1151,-0.1129,-0.1125,-0.1109,-0.1079,-0.1067,-0.1056,-0.1036,-0.1033,-0.103,-0.1024,-0.1011,-0.1009,-0.1008,-0.1001,-0.0998,-0.1028,-0.1028,-0.1028,0,-0.1242,-0.1219,-0.121,-0.1193,-0.1183,-0.1178,-0.1161,-0.115,-0.1127,-0.112,-0.1122,-0.1085,-0.1072,-0.1046,-0.1041,-0.1033,-0.1028,-0.1033,-0.101,-0.1009,-0.1007,-0.1,-0.0997,-0.1028,-0.1028,-0.1028,-0.1028,0,-0.1215,-0.1198,-0.1187,-0.1167,-0.1155,-0.1138,-0.1126,-0.1115,-0.1111,-0.1102,-0.108,-0.1064,-0.1044,-0.1038,-0.1032,-0.1011,-0.1013,-0.1013,-0.1017,-0.1004,-0.0998,-0.0995,-0.1028,-0.1028,-0.1028,-0.1028,0,0,-0.1197,-0.1173,-0.1169,-0.116,-0.1141,-0.1127,-0.111,-0.1092,-0.1083,-0.1067,-0.1053,-0.1028,-0.1029,-0.1017,-0.101,-0.0999,-0.0985,-0.1001,-0.1,-0.0999,-0.0961,-0.0961,-0.0958,-0.0983,-0.0982,-0.0982,-0.0962,0,-0.1178,-0.1148,-0.1141,-0.1115,-0.11,-0.1095,-0.1081,-0.1067,-0.1058,-0.1044,-0.1034,-0.1017,-0.1018,-0.1011,-0.1,-0.0989,-0.0977,-0.099,-0.0969,-0.0968,-0.0974,-0.0955,-0.0955,-0.0937,-0.096,-0.0959,-0.0959,0,-0.1151,-0.1137,-0.1111,-0.1094,-0.1087,-0.1074,-0.1057,-0.1043,-0.1028,-0.1022,-0.101,-0.1004,-0.0986,-0.0992,-0.0967,-0.0976,-0.0967,-0.096,-0.0959,-0.0957,-0.0963,-0.0952,-0.0931,-0.0929,-0.0955,-0.0955,-0.0955,0,-0.1142,-0.1116,-0.1097,-0.1089,-0.1069,-0.106,-0.1051,-0.1036,-0.1026,-0.1011,-0.1004,-0.0986,-0.0977,-0.0963,-0.0953,-0.0958,-0.0929,-0.0933,-0.0924,-0.0924,-0.0918,-0.0918,-0.0896,-0.0912,-0.0912,-0.0912,-0.0912,0,-0.1121,-0.1106,-0.1092,-0.1081,-0.1063,-0.1054,-0.1036,-0.1027,-0.1014,-0.1,-0.0994,-0.0981,-0.0969,-0.0954,-0.0946,-0.0927,-0.0923,-0.0917,-0.0916,-0.0918,-0.0919,-0.0912,-0.0913,-0.0911,-0.0911,-0.0911,-0.0911,0,-0.1108,-0.1098,-0.1077,-0.1061,-0.1056,-0.1044,-0.1029,-0.1017,-0.1009,-0.0991,-0.0987,-0.0973,-0.0956,-0.0944,-0.0922,-0.0916,-0.0896,-0.0894,-0.0901,-0.09,-0.0892,-0.0893,-0.0864,-0.086,-0.0878,-0.0878,-0.0878,0,-0.1095,-0.1083,-0.1066,-0.1057,-0.1048,-0.1033,-0.1023,-0.1014,-0.1003,-0.0985,-0.0976,-0.0958,-0.0944,-0.0916,-0.0904,-0.0886,-0.0884,-0.0876,-0.0882,-0.0885,-0.0885,-0.0886,-0.0885,-0.0875,-0.0874,-0.0874,-0.0874,0,-0.1075,-0.1071,-0.1057,-0.1041,-0.103,-0.1017,-0.1004,-0.0996,-0.0985,-0.0973,-0.0956,-0.0945,-0.0923,-0.0905,-0.0887,-0.0877,-0.0874,-0.0872,-0.0869,-0.0872,-0.0877,-0.0875,-0.0899,-0.0873,-0.0873,-0.0873,-0.0873,-0.0873,-0.1062,-0.1051,-0.1037,-0.1022,-0.1012,-0.1,-0.0988,-0.0979,-0.0965,-0.0946,-0.0942,-0.0924,-0.0909,-0.0884,-0.0874,-0.086,-0.0861,-0.0856,-0.0855,-0.0854,-0.0855,-0.0879,-0.0857,-0.0857,-0.0857,-0.0857,-0.0857,0,-0.1041,-0.1032,-0.1019,-0.1001,-0.0989,-0.0988,-0.0974,-0.0964,-0.0948,-0.0935,-0.0921,-0.0902,-0.0885,-0.0872,-0.0855,-0.0846,-0.0844,-0.0841,-0.0842,-0.084,-0.0854,-0.0859,-0.0843,-0.0844,-0.0844,-0.0844,-0.0844,-0.0844,-0.1029,-0.1011,-0.1006,-0.0983,-0.0974,-0.0957,-0.0949,-0.0938,-0.0928,-0.0907,-0.0893,-0.0885,-0.0872,-0.0854,-0.0839,-0.0835,-0.0829,-0.0828,-0.0824,-0.0837,-0.0839,-0.084,-0.0845,-0.0826,-0.0826,-0.0811,-0.0811,-0.0811]},{"header":{"parameterUnit":"m.s-1","parameterCategory":1,"la1":30.2991,"la2":30.254,"lo1":-89.0895,"lo2":-89.0444,"dy":0.0017,"dx":0.0017,"nx":28,"ny":28,"refTime":"2024-08-10T21:00:00:Z","depth":0,"parameterNumber":3,"parameterNumberName":"V-component_of_WINDS"},"data":[0,0,0,0,0,0,0,0,0,0,0,0,0,0,0,0,0,0,0,0,0,0,0,0,0,0,0,0,0,0,0,0,0,0,0,0,0,0,0,0,0,0,0,0,0,0,0,0,0,0,0,0,0,0,0,0,0,0,-0.8362,-0.8362,0,-0.8408,-0.8408,-0.8409,-0.8442,-0.8443,-0.8443,-0.8443,-0.849,-0.8491,-0.8492,0,0,0,0,0,0,0,0,0,0,0,0,0,-0.8305,-0.8306,-0.8362,-0.8362,-0.8363,-0.8408,-0.8408,-0.8409,-0.8442,-0.8443,-0.8443,-0.8443,-0.8489,-0.8491,-0.8492,0,0,0,0,0,0,0,0,0,0,0,0,0,-0.8338,-0.8306,-0.8362,-0.8385,-0.8387,-0.8408,-0.8408,-0.8409,-0.8442,-0.8443,-0.8443,-0.8443,-0.8489,-0.849,-0.8492,-0.8492,0,0,-0.8496,-0.8497,0,0,0,0,0,0,0,0,-0.8336,-0.834,-0.8381,-0.8383,-0.8386,-0.842,-0.8405,-0.8437,-0.8442,-0.8421,-0.8443,-0.8444,-0.8466,-0.8469,-0.8477,-0.8495,-0.8497,-0.8496,-0.8497,-0.8498,-0.8498,0,0,0,0,0,0,0,-0.8334,-0.8338,-0.838,-0.8381,-0.8385,-0.8394,-0.8399,-0.8412,-0.8441,-0.8423,-0.8426,-0.8431,-0.8468,-0.8476,-0.8478,-0.8497,-0.8496,-0.8498,-0.8499,-0.8499,-0.8522,-0.8522,0,0,0,0,0,0,-0.8328,-0.8336,-0.8378,-0.8381,-0.8362,-0.8394,-0.84,-0.8409,-0.8441,-0.8446,-0.843,-0.8432,-0.8473,-0.8477,-0.848,-0.8486,-0.8498,-0.8499,-0.85,-0.8522,-0.8522,-0.8521,0,0,0,0,0,0,-0.8326,-0.8331,-0.8377,-0.836,-0.8366,-0.8395,-0.8404,-0.8409,-0.8417,-0.8446,-0.8452,-0.8433,-0.8473,-0.8478,-0.849,-0.8488,-0.85,-0.8501,-0.8522,-0.8522,-0.8522,-0.8495,0,0,0,0,0,0,-0.8325,-0.833,-0.833,-0.8359,-0.8367,-0.8385,-0.8404,-0.841,-0.842,-0.8423,-0.845,-0.8455,-0.8474,-0.8488,-0.8492,-0.849,-0.8502,-0.8523,-0.8522,-0.8522,-0.8496,-0.8494,-0.8491,0,0,0,0,0,-0.8322,-0.832,-0.833,-0.8335,-0.8367,-0.8385,-0.8389,-0.8411,-0.8419,-0.842,-0.8439,-0.8454,-0.8487,-0.8489,-0.8493,-0.8492,-0.8523,-0.8522,-0.8522,-0.8497,-0.8494,-0.8491,0,0,0,0,0,0,-0.8288,-0.8324,-0.8335,-0.8342,-0.836,-0.839,-0.8391,-0.8407,-0.8422,-0.8424,-0.8451,-0.8457,-0.8467,-0.8481,-0.8481,-0.8496,-0.8507,-0.8508,-0.8487,-0.8484,-0.8482,-0.8479,-0.8504,0,0,0,0,0,-0.8282,-0.8293,-0.8323,-0.8326,-0.8335,-0.8362,-0.837,-0.8386,-0.8406,-0.8413,-0.8433,-0.8452,-0.8467,-0.8476,-0.8491,-0.8498,-0.8506,-0.85,-0.8498,-0.8496,-0.8496,-0.8504,-0.8502,-0.8519,-0.8519,-0.8519,0,0,-0.8268,-0.8289,-0.8294,-0.832,-0.8336,-0.8348,-0.8368,-0.8379,-0.8389,-0.8415,-0.8428,-0.8444,-0.8467,-0.8477,-0.8483,-0.8489,-0.8493,-0.8495,-0.8493,-0.8494,-0.8503,-0.8501,-0.85,-0.8519,-0.8519,-0.8519,0,0,-0.8249,-0.8265,-0.8271,-0.8287,-0.8312,-0.833,-0.8332,-0.8361,-0.8372,-0.8386,-0.8408,-0.842,-0.8444,-0.8461,-0.8472,-0.8464,-0.848,-0.8468,-0.8456,-0.8464,-0.8462,-0.8461,-0.8461,-0.846,-0.8468,-0.8468,-0.8468,0,-0.8229,-0.8248,-0.8272,-0.8283,-0.8295,-0.8321,-0.8329,-0.8343,-0.8371,-0.8379,-0.8386,-0.842,-0.8437,-0.8453,-0.8452,-0.8459,-0.8464,-0.8465,-0.8461,-0.846,-0.8459,-0.8459,-0.8458,-0.8467,-0.8467,-0.8467,-0.8467,0,-0.8223,-0.8236,-0.8238,-0.8266,-0.8278,-0.8287,-0.8314,-0.8324,-0.834,-0.8358,-0.8373,-0.8395,-0.8417,-0.8422,-0.8436,-0.8441,-0.8445,-0.8455,-0.8467,-0.8456,-0.8456,-0.8456,-0.8465,-0.8465,-0.8466,-0.8466,0,0,-0.8183,-0.8227,-0.8227,-0.8242,-0.8272,-0.8283,-0.8295,-0.8317,-0.8326,-0.8345,-0.8356,-0.8378,-0.839,-0.8403,-0.842,-0.8426,-0.8422,-0.8437,-0.8438,-0.8435,-0.8431,-0.8424,-0.8423,-0.8432,-0.8432,-0.8432,-0.843,0,-0.8171,-0.8192,-0.8216,-0.823,-0.8244,-0.8271,-0.8281,-0.8302,-0.832,-0.8335,-0.8355,-0.8371,-0.8383,-0.8392,-0.8399,-0.8421,-0.8422,-0.8421,-0.8444,-0.8445,-0.8439,-0.8423,-0.8414,-0.8411,-0.843,-0.843,-0.843,0,-0.8159,-0.8179,-0.8194,-0.8227,-0.8234,-0.8242,-0.8266,-0.828,-0.8305,-0.8318,-0.8334,-0.8353,-0.8368,-0.8378,-0.84,-0.8399,-0.841,-0.8423,-0.8423,-0.8427,-0.8437,-0.8427,-0.841,-0.841,-0.843,-0.843,-0.843,0,-0.8131,-0.8161,-0.8176,-0.8187,-0.8224,-0.8231,-0.8247,-0.8272,-0.8285,-0.8306,-0.8315,-0.8337,-0.8349,-0.8367,-0.8392,-0.8396,-0.8412,-0.8423,-0.8424,-0.8424,-0.8427,-0.8426,-0.8412,-0.8432,-0.8432,-0.8432,-0.8432,0,-0.8116,-0.8125,-0.8164,-0.8173,-0.8185,-0.8213,-0.8224,-0.8243,-0.8266,-0.8279,-0.8303,-0.8316,-0.8347,-0.8364,-0.8384,-0.8401,-0.8405,-0.8417,-0.8422,-0.8416,-0.8414,-0.8424,-0.8425,-0.8432,-0.8432,-0.8432,-0.8432,0,-0.8087,-0.8113,-0.8131,-0.8166,-0.8175,-0.8183,-0.8213,-0.8224,-0.8244,-0.8261,-0.8267,-0.8299,-0.832,-0.8347,-0.8376,-0.8389,-0.8405,-0.8412,-0.8396,-0.84,-0.84,-0.84,-0.8392,-0.8393,-0.841,-0.841,-0.841,0,-0.8076,-0.8084,-0.8121,-0.8132,-0.8148,-0.8165,-0.8179,-0.8208,-0.8222,-0.8253,-0.826,-0.8283,-0.8303,-0.8336,-0.8362,-0.8385,-0.8394,-0.839,-0.8398,-0.8392,-0.8396,-0.8396,-0.8398,-0.8388,-0.8388,-0.8388,-0.8387,0,-0.8055,-0.8068,-0.8088,-0.8112,-0.8129,-0.8149,-0.8171,-0.8179,-0.8212,-0.8227,-0.8249,-0.8265,-0.8296,-0.832,-0.8347,-0.8364,-0.8382,-0.8385,-0.8387,-0.838,-0.8372,-0.8378,-0.8392,-0.8385,-0.8385,-0.8385,-0.8385,-0.8385,-0.8036,-0.8046,-0.8074,-0.8095,-0.8115,-0.8135,-0.8148,-0.8171,-0.819,-0.8218,-0.8234,-0.8257,-0.8284,-0.8323,-0.834,-0.8358,-0.8365,-0.8366,-0.8367,-0.8368,-0.8366,-0.8368,-0.8363,-0.8363,-0.8363,-0.8363,-0.8363,0,-0.8018,-0.8038,-0.8058,-0.8088,-0.8106,-0.8121,-0.8147,-0.8161,-0.8181,-0.8205,-0.8225,-0.8252,-0.8276,-0.8304,-0.833,-0.834,-0.8349,-0.8346,-0.8346,-0.835,-0.8358,-0.8355,-0.8338,-0.8338,-0.8338,-0.8338,-0.8338,-0.8338,-0.8011,-0.8029,-0.8046,-0.8075,-0.8095,-0.8118,-0.8132,-0.8151,-0.8171,-0.82,-0.8221,-0.8239,-0.8266,-0.8294,-0.8317,-0.8325,-0.8334,-0.8329,-0.834,-0.8347,-0.8349,-0.8351,-0.8348,-0.8331,-0.8331,-0.833,-0.833,-0.833]}]]